Regional Weather Roundup
Issued by NWS

Home | Current Version | Previous Version | Text Only | Print | Product List | Glossary Off
Versions: 1 2 3 4 5 6 7 8 9 10 11 12 13 14 15 16 17 18 19 20 21 22 23 24 25 26 27 28 29 30 31 32 33 34 35 36 37 38 39 40 41 42 43 44 45 46 47 48 49 50

000
ASUS43 KMKX 220821
RWRWI

WISCONSIN REGIONAL WEATHER ROUNDUP
NATIONAL WEATHER SERVICE MILWAUKEE/SULLIVAN WI
300 AM CDT THU JUN 22 2017

NOTE: "FAIR" INDICATES FEW OR NO CLOUDS BELOW 12,000 FEET WITH NO
SIGNIFICANT WEATHER AND/OR OBSTRUCTIONS TO VISIBILITY.

WIZ001-002-006>008-014>016-023>028-220900-
NORTHWEST WISCONSIN

CITY           SKY/WX    TMP DP  RH WIND       PRES   REMARKS
SUPERIOR ARPT  NOT AVBL
ASHLAND        PTCLDY    52  51  97 CALM      29.68F
HAYWARD        PTCLDY    63  57  81 SW6       29.71R
SIREN          CLOUDY    66  59  77 CALM      29.67F
CUMBERLAND     DRIZZLE   63  57  82 SE10      29.66F
RICE LAKE      CLOUDY    66  59  76 S3        29.71F
CHETEK         CLOUDY    67  59  76 CALM      29.72R
LADYSMITH      CLOUDY    65  56  74 SW5       29.73R
EAU CLAIRE     CLOUDY    67  59  75 S6        29.68F
MENOMONIE      CLOUDY    64  60  85 CALM      29.68F
NEW RICHMOND   CLOUDY    66  59  77 SE6       29.67F
OSCEOLA        CLOUDY    65  62  88 SE6       29.67F
$$

WIZ003>005-009-010-017-018-220900-
NORTH CENTRAL WISCONSIN

CITY           SKY/WX    TMP DP  RH WIND       PRES   REMARKS
MANITOWISH WTR CLOUDY    61  58  87 S5        29.72F
ARBOR VITAE    CLOUDY    64  56  74 S6        29.73S
WOODRUFF       CLOUDY    64  56  74 S6        29.73S
RHINELANDER    CLOUDY    65  57  75 SW6       29.75S
EAGLE RIVER    CLOUDY    62  53  74 S3        29.74S
LAND O LAKES   CLOUDY    63  55  74 S3        29.74F
PHILLIPS       CLOUDY    65  57  77 SW5       29.72R
TOMAHAWK       NOT AVBL
MEDFORD        CLOUDY    63  57  83 S8        29.74S
MERRILL        CLOUDY    65  59  80 S6        29.75R
$$

WIZ029-030-035-036-043>047-220900-
CENTRAL WISCONSIN

CITY           SKY/WX    TMP DP  RH WIND       PRES   REMARKS
WAUSAU         CLOUDY    66  59  78 S13       29.75R
MOSINEE        TSTM      63  61  94 SW6       29.78R
MARSHFIELD     LGT RAIN  63  59  87 S8        29.74S
STEVENS POINT  MOCLDY    63  60  89 S6        29.76S
WAUPACA        PTCLDY    64  62  93 SE5       29.74F
WAUTOMA        MOCLDY    64  59  82 SE3       29.74F
WISC RAPIDS    CLOUDY    64  60  87 VRB3      29.75F
CAMP DOUGLAS   TSTM      68  63  83 CALM      29.71F
$$

WIZ011>013-019>022-031-037>040-048>050-220900-
NORTHEAST WISCONSIN

CITY           SKY/WX    TMP DP  RH WIND       PRES   REMARKS
ANTIGO         CLOUDY    61  57  87 S7        29.75F
SHAWANO        CLOUDY    64  59  84 CALM      29.74F
OCONTO         CLOUDY    64  58  81 S9        29.74F
STURGEON BAY   LGT RAIN  62  55  77 S16         N/A
GREEN BAY      CLOUDY    64  64 100 S10       29.76F
MANITOWOC      CLOUDY    64  56  75 SE13      29.81R
APPLETON       MOCLDY    63  61  94 S10       29.74F
CLINTONVILLE   CLOUDY    63  59  88 S3        29.75F
OSHKOSH        CLOUDY    65  57  75 SE8       29.76F
$$

WIZ032>034-041-042-053>061-220900-
SOUTHWEST WISCONSIN

CITY           SKY/WX    TMP DP  RH WIND       PRES   REMARKS
LA CROSSE      TSTM      72  67  84 N3        29.72R
SPARTA         CLOUDY    70  65  83 N12       29.73S
VIROQUA        CLOUDY    70  67  90 S12       29.71F
BOSCOBEL       MOCLDY    73  66  78 S5        29.72F
PRAIRIE DU CHI CLOUDY    77  64  63 S24       29.73S
PLATTEVILLE    CLOUDY    70  68  95 S9        29.78S
$$

WIZ056-057-062-063-064-067-068-220900-
SOUTH CENTRAL WISCONSIN

CITY           SKY/WX    TMP DP  RH WIND       PRES   REMARKS
REEDSBURG      MOCLDY    70  65  83 S9        29.71F
BARABOO/DELLS  CLOUDY    71  62  73 S14G20    29.74F
LONE ROCK      PTCLDY    70  64  81 CALM      29.73F
MINERAL POINT  PTCLDY    68  68 100 S6        29.77F
MADISON        PTCLDY    69  62  78 S6        29.77F
MIDDLETON      MOCLDY    71  63  76 CALM      29.78S
WATERTOWN      CLOUDY    66  61  84 S3        29.79S
MONROE         CLEAR     70  64  83 S12       29.80R
JANESVILLE     MOCLDY    70  64  83 CALM      29.79S
$$

WIZ051-052-058>065-066-070>072-220900-
SOUTHEAST WISCONSIN

CITY           SKY/WX    TMP DP  RH WIND       PRES   REMARKS
MILWAUKEE      PTCLDY    69  60  73 S12       29.80F
WAUKESHA       PTCLDY    63  55  77 S5        29.82S
MILWAUKEE/TIMM MOCLDY    64  54  68 S6        29.81S
RACINE         CLEAR     68  60  75 S10       29.83S
KENOSHA        CLEAR     68  60  75 S8        29.81F
FOND DU LAC    CLOUDY    67  55  65 S6        29.77F
SHEBOYGAN      CLOUDY    65  58  78 E3        29.80F
WEST BEND      CLOUDY    64  54  68 S8        29.79F
JUNEAU         CLOUDY    66  58  77 S6        29.79F
$$

LSZ147-162-220900-
LAKE SUPERIOR

STATION/POSITION TIME  TEMP    WIND        PRES    WAVE
                       AIR SEA DIR/SP/G            HT/PER
                 (UTC) (F)     (DEG/KT/KT) (MB)    (FT/S)
W MID LAKE BUOY  0750   43 39  140/  6/  8 1005.5F   0
DEVILS ISLAND    0800   49     100/  8/  9 1004.7F
PORT WING        0600   54      10/ 24     1006.1
SAXON HARBOR     0740   60      CALM  /  1 1005.1R
$$

LMZ867-665-643>646-220900-
LAKE MICHIGAN

STATION/POSITION TIME  TEMP    WIND        PRES    WAVE
                       AIR SEA DIR/SP/G            HT/PER
                 (UTC) (F)     (DEG/KT/KT) (MB)    (FT/S)
CHAMBERS ISLAND  0740   65     140/  4/  9 1007.5F
N MID LAKE BUOY  0750   59 55  160/ 12/ 12 1009.4F   1/ 3
NORTHPORT PIER   0740   63     150/  8/ 14 1008.5F
KEWAUNEE LAKESHO 0754   54     180/ 10/ 12 1008.7F
SHEBOYGAN LAKESH 0800   61     120/  5/  6 1008.8R
PORT WASHINGTON  0740   60     200/  3/  6 1010.2S
ATWATER BUOY     0709   59 53  170/ 10/ 12 1009.3F
MILWAUKEE LAKESH 0800   65     200/  5/  6   N/A
S MID LAKE BUOY  0750   66 61  140/ 14/ 16 1009.8F   1/ 3
KENOSHA   LAKESH 0800   65     180/ 12/ 15 1009.1
$$

TC  - TEMPERATURE IN CELSIUS
VSB - VISIBILITY IN STATUTE MILES
WCI - WIND CHILL INDEX
HX  - HEAT INDEX





USA.gov is the U.S. government's official web portal to all federal, state and local government web resources and services.